When you browse on this site, cookies collect data to enhance your experience and personalize the content and advertising you see.
Visit our Privacy Policy to learn more. By continuing to use the site, you agree to this use of cookies and data.
  • In United Kingdom
  • List of Countries
  • For 7 days
  • Water Temperature
  • Satellite Maps
  • Weather Map
  • Weather Widgets
  • user-avatar
    Login

    Hourly Weather Belém

    Today, 17 November, Saturday

    Time Temperature Precipitation Wind Pressure Humidity
    00:00 +27°C° 0 mm 2 mps 758 mmHg 77%
    01:00 +27°C° 0 mm 2 mps 757 mmHg 79%
    02:00 +27°C° 0 mm 2 mps 757 mmHg 82%
    03:00 +26°C° 0 mm 2 mps 757 mmHg 84%
    04:00 +26°C° 0 mm 2 mps 757 mmHg 86%
    05:00 +26°C° 0 mm 2 mps 757 mmHg 87%
    06:00 +25°C° 0 mm 2 mps 757 mmHg 89%
    07:00 +27°C° 0 mm 2 mps 757 mmHg 80%
    08:00 +29°C° 0 mm 2 mps 757 mmHg 72%
    09:00 +31°C° 0 mm 2 mps 758 mmHg 64%
    10:00 +34°C° 0 mm 2 mps 757 mmHg 56%
    11:00 +35°C° 0 mm 2 mps 757 mmHg 49%
    12:00 +37°C° 0 mm 2 mps 757 mmHg 42%
    13:00 +37°C° 0 mm 2 mps 756 mmHg 41%
    14:00 +38°C° 0 mm 3 mps 756 mmHg 40%
    15:00 +38°C° 0 mm 3 mps 755 mmHg 38%
    16:00 +36°C° 0 mm 3 mps 755 mmHg 45%
    17:00 +35°C° 0 mm 3 mps 755 mmHg 52%
    18:00 +33°C° 0 mm 3 mps 755 mmHg 58%
    19:00 +31°C° 0 mm 3 mps 755 mmHg 63%
    20:00 +30°C° 0 mm 3 mps 756 mmHg 68%
    21:00 +29°C° 0 mm 3 mps 757 mmHg 73%
    22:00 +29°C° 0 mm 2 mps 757 mmHg 76%
    23:00 +28°C° 0 mm 2 mps 757 mmHg 78%

    Tomorrow, 18 November, Sunday

    Time Temperature Precipitation Wind Pressure Humidity
    00:00 +28°C° 0 mm 2 mps 757 mmHg 80%
    01:00 +27°C° 0 mm 2 mps 757 mmHg 83%
    02:00 +27°C° 0 mm 2 mps 756 mmHg 85%
    03:00 +26°C° 0 mm 2 mps 755 mmHg 88%
    04:00 +26°C° 0 mm 2 mps 756 mmHg 89%
    05:00 +26°C° 0 mm 2 mps 756 mmHg 91%
    06:00 +26°C° 0 mm 2 mps 756 mmHg 92%
    07:00 +28°C° 0 mm 2 mps 756 mmHg 83%
    08:00 +30°C° 0 mm 2 mps 757 mmHg 74%
    09:00 +33°C° 0 mm 3 mps 757 mmHg 65%
    10:00 +34°C° 0 mm 3 mps 757 mmHg 59%
    11:00 +36°C° 0 mm 3 mps 757 mmHg 52%
    12:00 +37°C° 0 mm 2 mps 757 mmHg 46%
    13:00 +37°C° 0.1 mm 2 mps 756 mmHg 47%
    14:00 +37°C° 0.1 mm 2 mps 755 mmHg 48%
    15:00 +36°C° 0.1 mm 2 mps 754 mmHg 48%
    16:00 +35°C° 0.1 mm 2 mps 754 mmHg 54%
    17:00 +34°C° 0.1 mm 2 mps 755 mmHg 59%
    18:00 +31°C° 0.1 mm 2 mps 755 mmHg 65%
    19:00 +31°C° 0.1 mm 2 mps 755 mmHg 68%
    20:00 +30°C° 0.1 mm 2 mps 756 mmHg 71%
    21:00 +29°C° 0.1 mm 3 mps 757 mmHg 74%
    22:00 +29°C° 0 mm 2 mps 757 mmHg 76%
    23:00 +28°C° 0 mm 2 mps 757 mmHg 77%

    Day after tomorrow, 19 November, Monday

    Time Temperature Precipitation Wind Pressure Humidity
    00:00 +28°C° 0 mm 2 mps 757 mmHg 79%
    01:00 +28°C° 0 mm 2 mps 756 mmHg 81%
    02:00 +27°C° 0 mm 2 mps 756 mmHg 83%
    03:00 +27°C° 0 mm 2 mps 755 mmHg 85%
    04:00 +27°C° 0 mm 2 mps 755 mmHg 86%
    05:00 +26°C° 0 mm 2 mps 755 mmHg 88%
    06:00 +26°C° 0 mm 2 mps 756 mmHg 90%
    07:00 +28°C° 0 mm 2 mps 756 mmHg 81%
    08:00 +30°C° 0 mm 2 mps 757 mmHg 72%
    09:00 +33°C° 0 mm 3 mps 757 mmHg 63%
    10:00 +35°C° 0 mm 3 mps 757 mmHg 55%
    11:00 +37°C° 0 mm 3 mps 756 mmHg 48%
    12:00 +38°C° 0 mm 3 mps 756 mmHg 41%
    13:00 +38°C° 0 mm 2 mps 755 mmHg 43%
    14:00 +37°C° 0 mm 2 mps 754 mmHg 46%
    15:00 +36°C° 0 mm 2 mps 754 mmHg 48%
    16:00 +35°C° 0 mm 2 mps 754 mmHg 53%
    17:00 +34°C° 0 mm 2 mps 754 mmHg 57%
    18:00 +32°C° 0 mm 2 mps 754 mmHg 61%
    19:00 +31°C° 0 mm 2 mps 755 mmHg 65%
    20:00 +30°C° 0 mm 2 mps 755 mmHg 68%
    21:00 +29°C° 0 mm 3 mps 756 mmHg 72%
    22:00 +29°C° 0 mm 3 mps 756 mmHg 74%
    23:00 +29°C° 0 mm 2 mps 756 mmHg 75%

    20 November, Tuesday

    Time Temperature Precipitation Wind Pressure Humidity
    00:00 +28°C° 0 mm 2 mps 756 mmHg 77%
    01:00 +28°C° 0 mm 2 mps 756 mmHg 79%
    02:00 +27°C° 0 mm 2 mps 755 mmHg 81%
    03:00 +27°C° 0 mm 2 mps 755 mmHg 83%
    04:00 +27°C° 0 mm 2 mps 755 mmHg 84%
    05:00 +27°C° 0 mm 2 mps 756 mmHg 86%
    06:00 +26°C° 0 mm 2 mps 756 mmHg 88%
    07:00 +28°C° 0 mm 2 mps 757 mmHg 79%
    08:00 +30°C° 0 mm 2 mps 757 mmHg 70%
    09:00 +33°C° 0 mm 3 mps 758 mmHg 62%
    10:00 +35°C° 0 mm 3 mps 757 mmHg 55%
    11:00 +37°C° 0 mm 3 mps 757 mmHg 48%
    12:00 +38°C° 0 mm 3 mps 756 mmHg 41%
    13:00 +37°C° 0.2 mm 3 mps 755 mmHg 44%
    14:00 +37°C° 0.2 mm 2 mps 755 mmHg 47%
    15:00 +36°C° 0.2 mm 2 mps 754 mmHg 51%
    16:00 +35°C° 0.3 mm 2 mps 754 mmHg 55%
    17:00 +34°C° 0.3 mm 2 mps 754 mmHg 59%
    18:00 +31°C° 0.3 mm 2 mps 755 mmHg 63%
    19:00 +31°C° 0.3 mm 2 mps 755 mmHg 67%
    20:00 +30°C° 0.3 mm 2 mps 756 mmHg 71%
    21:00 +29°C° 0.3 mm 2 mps 756 mmHg 75%
    22:00 +29°C° 0 mm 2 mps 756 mmHg 77%
    23:00 +28°C° 0 mm 2 mps 756 mmHg 78%

    21 November, Wednesday

    Time Temperature Precipitation Wind Pressure Humidity
    00:00 +28°C° 0 mm 2 mps 756 mmHg 80%
    01:00 +27°C° 0 mm 2 mps 756 mmHg 81%
    02:00 +27°C° 0 mm 2 mps 755 mmHg 83%
    03:00 +27°C° 0 mm 2 mps 755 mmHg 84%
    04:00 +27°C° 0 mm 2 mps 756 mmHg 86%
    05:00 +27°C° 0 mm 2 mps 756 mmHg 87%
    06:00 +26°C° 0 mm 2 mps 756 mmHg 88%
    07:00 +28°C° 0 mm 2 mps 757 mmHg 80%
    08:00 +30°C° 0 mm 3 mps 757 mmHg 71%
    09:00 +33°C° 0 mm 3 mps 758 mmHg 63%
    10:00 +35°C° 0 mm 3 mps 757 mmHg 56%
    11:00 +36°C° 0 mm 3 mps 757 mmHg 49%
    12:00 +38°C° 0 mm 3 mps 756 mmHg 42%
    13:00 +38°C° 0 mm 3 mps 755 mmHg 44%
    14:00 +37°C° 0 mm 3 mps 755 mmHg 46%
    15:00 +36°C° 0 mm 3 mps 754 mmHg 47%
    16:00 +35°C° 0 mm 2 mps 754 mmHg 52%
    17:00 +34°C° 0 mm 2 mps 754 mmHg 57%
    18:00 +32°C° 0 mm 2 mps 755 mmHg 62%
    19:00 +31°C° 0 mm 3 mps 755 mmHg 66%
    20:00 +30°C° 0 mm 3 mps 755 mmHg 69%
    21:00 +29°C° 0 mm 3 mps 756 mmHg 73%
    22:00 +29°C° 0 mm 3 mps 756 mmHg 75%
    23:00 +28°C° 0 mm 2 mps 756 mmHg 77%

    22 November, Thursday

    Time Temperature Precipitation Wind Pressure Humidity
    00:00 +28°C° 0 mm 2 mps 756 mmHg 79%
    01:00 +28°C° 0 mm 2 mps 755 mmHg 80%
    02:00 +27°C° 0 mm 2 mps 755 mmHg 82%
    03:00 +27°C° 0 mm 2 mps 755 mmHg 84%
    04:00 +27°C° 0 mm 2 mps 755 mmHg 85%
    05:00 +27°C° 0 mm 2 mps 755 mmHg 87%
    06:00 +26°C° 0 mm 2 mps 756 mmHg 89%
    07:00 +28°C° 0 mm 2 mps 756 mmHg 80%
    08:00 +30°C° 0 mm 2 mps 757 mmHg 71%
    09:00 +33°C° 0 mm 3 mps 757 mmHg 63%
    10:00 +35°C° 0 mm 3 mps 756 mmHg 57%
    11:00 +36°C° 0 mm 3 mps 756 mmHg 51%
    12:00 +37°C° 0 mm 3 mps 755 mmHg 46%
    13:00 +37°C° 0.1 mm 3 mps 754 mmHg 46%
    14:00 +37°C° 0.1 mm 3 mps 754 mmHg 47%
    15:00 +37°C° 0.1 mm 3 mps 753 mmHg 48%
    16:00 +35°C° 0.1 mm 3 mps 753 mmHg 55%
    17:00 +33°C° 0.1 mm 3 mps 753 mmHg 62%
    18:00 +31°C° 0.1 mm 3 mps 753 mmHg 70%
    19:00 +30°C° 0.5 mm 3 mps 754 mmHg 72%
    20:00 +29°C° 0.5 mm 3 mps 754 mmHg 75%
    21:00 +29°C° 0.5 mm 3 mps 755 mmHg 78%
    22:00 +28°C° 0.1 mm 3 mps 755 mmHg 79%
    23:00 +28°C° 0.1 mm 3 mps 755 mmHg 80%
    Show more